#timestamp,LO_Frequency,Hit,StdDev 
1693224015.8,286047003.7,P
1693224035.7,286047002.8,N
1693224055.5,286047001.1,N
1693224075.3,286046998.1,N
1693224095.2,286047000.8,N
1693224115.0,286046998.6,N
1693224115.9,286046998.6,N
1693224135.7,286046999.2,N
1693224155.6,286046998.9,N
1693224175.4,286046999.5,N
1693224225.3,286046999.1,E
1693224265.2,286047000.4,E
1693224275.1,286046998.4,N
1693224295.9,286046996.9,P
1693224315.7,286046999.6,N
1693224335.5,286046999.2,N
1693224355.4,286047001.0,N
1693224375.2,286046999.4,N
1693224395.0,286046998.7,N
1693224395.9,286046998.7,N
1693224415.8,286046998.3,N
1693224435.6,286046998.3,N
1693224455.4,286047000.7,N
1693224475.3,286047000.9,N
1693224495.1,286047000.6,N
1693224515.8,286046999.9,N
1693224535.7,286047001.0,N
1693224555.5,286047000.5,N
1693224575.3,286046998.1,N
1693224595.2,286047001.1,N
1693224615.0,286046998.2,N
1693224615.9,286046998.2,N
1693224635.7,286047000.7,N
1693224655.6,286047002.6,N
1693224675.4,286047003.3,N
1693224695.2,286046999.7,N
1693224715.1,286046999.9,N
1693224716.0,286046999.9,N
1693224735.8,286047000.8,N
1693224755.6,286047001.1,N
1693224775.5,286047002.8,N
1693224795.3,286047000.2,N
1693224815.1,286047002.7,N
1693224835.9,286047000.5,N
1693224855.7,286047000.7,N
1693224875.5,286047001.1,N
1693224895.4,286047000.0,N
1693224915.2,286047001.1,N
1693224935.0,286047000.9,N
1693224936.0,286047000.9,N
1693224955.8,286046998.2,N
1693224975.6,286047000.7,N
1693224995.5,286047001.1,N
1693225015.3,286046998.3,N
1693225035.1,286046998.2,N
1693225055.9,286046998.1,N
1693225075.7,286046998.2,N
1693225095.5,286047001.2,N
1693225115.4,286046998.5,N
1693225135.2,286047000.2,N
1693225155.0,286046998.1,N
1693225155.9,286046998.1,N
1693225175.8,286047000.6,N
1693225195.6,286046998.1,N
1693225215.4,286046998.6,N
1693225235.3,286047001.2,N
1693225255.1,286047000.7,N
1693225256.0,286047000.7,N
1693225275.8,286047000.2,N
1693225295.7,286047000.9,N
1693225315.5,286046999.9,N
1693225335.3,286047002.1,N
1693225355.2,286047002.3,N
1693225375.9,286047002.0,N
1693225395.7,286047002.0,N
1693225415.6,286047002.6,N
1693225435.4,286047001.4,N
1693225455.2,286047001.9,N
1693225475.1,286047001.4,N
1693225476.0,286047001.4,N
1693225495.8,286047004.3,N
1693225515.6,286047001.8,N
1693225535.5,286047001.7,N
1693225555.3,286047001.6,N
1693225575.1,286047001.7,N
1693225595.9,286047003.2,N
1693225615.7,286047003.3,N
1693225635.5,286047005.4,Y
1693225655.4,286047002.0,P
1693225675.2,286047003.2,P
1693225695.0,286047003.5,P
1693225695.9,286047003.5,Y
1693225715.8,286047004.9,P
1693225735.6,286047003.0,N
1693225755.4,286047003.9,P
1693225775.3,286047002.2,N
1693225795.1,286047000.2,N
1693225815.9,286047001.2,N
1693225835.7,286046998.1,N
1693225855.5,286046998.3,N
1693225875.4,286046999.1,N
1693225895.2,286046998.9,N
1693225915.0,286046998.3,N
1693225915.9,286046998.3,N
1693225935.8,286046998.6,N
1693225955.6,286047001.1,N
1693225975.4,286047000.5,N
1693225995.3,286047002.3,N
1693226015.1,286047000.8,N
1693226016.0,286047000.8,N
1693226035.8,286047002.5,N
1693226055.7,286047001.8,N
1693226075.5,286047001.4,N
1693226095.3,286047004.3,N
1693226115.2,286047010.9,Y
1693226135.9,286047006.8,P
1693226155.7,286047003.9,N
1693226175.6,286047000.2,N
1693226195.4,286047000.9,N
1693226215.2,286046998.5,N
1693226235.1,286046997.8,N
1693226236.0,286046997.8,N
1693226255.8,286046998.9,N
1693226275.6,286046999.1,N
1693226295.5,286046999.4,N
1693226315.3,286046998.5,N
1693226335.1,286046998.8,N
1693226355.9,286046998.5,N
1693226375.7,286046999.9,N
1693226395.5,286047000.0,N
1693226415.4,286047000.9,N
1693226435.2,286047001.5,N
1693226455.0,286046999.8,N
1693226456.0,286046999.8,N
1693226475.8,286047002.8,N
1693226495.6,286047000.2,N
1693226515.5,286047000.9,N
1693226535.3,286047000.7,N
1693226555.1,286047000.3,N
1693226575.9,286047000.9,N
1693226595.7,286047000.9,N
1693226615.5,286047000.7,N
1693226635.4,286047000.9,N
1693226655.2,286047001.1,N
1693226675.0,286047003.0,N
1693226675.9,286047003.0,N
1693226695.8,286047004.4,N
1693226715.6,286047000.5,N
1693226735.4,286046998.2,N
1693226755.3,286046998.1,N
1693226775.1,286046998.9,N
1693226795.8,286046998.3,N
1693226815.7,286046998.3,N
1693226835.5,286046999.2,N
1693226855.3,286046999.0,N
1693226875.2,286046997.4,N
1693226895.0,286046997.4,N
1693226895.9,286046997.4,N
1693226915.7,286046997.3,N
1693226935.6,286046996.7,N
1693226955.4,286046997.1,N
1693226975.2,286046997.7,N
1693226995.1,286046997.4,N
1693226996.0,286046997.4,N
1693227015.8,286046997.2,N
1693227035.7,286046996.9,N
1693227055.5,286046995.0,N
1693227075.3,286046997.4,N
1693227095.2,286046996.5,N
1693227115.9,286046996.5,N
1693227135.7,286046996.9,N
1693227155.6,286046997.8,N
1693227175.4,286046997.7,N
1693227195.2,286047001.5,N
1693227215.1,286046997.3,N
1693227216.0,286046997.3,N
1693227235.8,286046996.9,N
1693227255.6,286046997.8,N
1693227275.5,286046995.2,Y
1693227295.3,286046999.5,P
1693227315.1,286046998.6,N
1693227335.9,286046996.9,P
1693227355.7,286046997.3,N
1693227375.5,286046996.8,Y
1693227395.4,286046998.2,P
1693227415.2,286046998.6,P
1693227435.0,286046999.1,P
1693227436.0,286046999.1,N
1693227455.8,286046998.8,N
1693227475.6,286046998.2,Y
1693227495.5,286047000.8,P
1693227515.3,286047001.2,N
1693227535.1,286047011.3,P
1693227555.9,286047003.1,N
1693227575.7,286047002.6,N
1693227595.5,286047002.8,N
